Location: Nairn
(57.5833°N, 3.8667°W)
Time: 02:32:12
(UTC+00:00)

Meteor 1-29 - Pass Details

Date: 07 August 2020
Orbit: 438 x 460 km, 97.7° (Epoch: 19 September)

Event Time Altitude Azimuth Distance (km) Brightness Sun altitude
Rises 02:18:28 0° 10° (N) 2,505 8.2 -12.2°
Reaches altitude 10° 02:20:38 10° 1° (N) 1,625 6.8 -12.1°
Maximum altitude 02:23:48 33° 296° (WNW) 798 4.1 -11.9°
Enters shadow 02:26:04 16° 238° (WSW) 1,289 4.7 -11.7°
